This is the latest recevied weather packets stored in our database for station/object K1WJY. If no packets are shown the sender has not sent any weather packets the latest 10 day(s).
| Time | Temp. | Humidity | Pressure | Rain* | Wind** | Luminosity | Snow |
|---|---|---|---|---|---|---|---|
| 1777862140 | 5° C | 81% | 1006.5 hPa | 0 mm | - | 0 W/m² | - |
| 1777861836 | 5.56° C | 80% | 1006.5 hPa | 0 mm | - | 0 W/m² | - |
| 1777861532 | 5.56° C | 80% | 1006.4 hPa | 0 mm | - | 0 W/m² | - |
| 1777861229 | 5° C | 82% | 1006.5 hPa | 0 mm | - | 0 W/m² | - |
| 1777860926 | 5.56° C | 81% | 1006.2 hPa | 0 mm | - | 0 W/m² | - |
| 1777860623 | 5.56° C | 82% | 1006.1 hPa | 0 mm | - | 0 W/m² | - |
| 1777860320 | 5.56° C | 82% | 1006.2 hPa | 0 mm | - | 0 W/m² | - |
| 1777860017 | 5.56° C | 83% | 1006.2 hPa | 0 mm | - | 0 W/m² | - |
| 1777859713 | 5.56° C | 86% | 1006.2 hPa | 0 mm | - | 0 W/m² | - |
| 1777859409 | 5.56° C | 88% | 1006 hPa | 0 mm | - | 0 W/m² | - |
| 1777859105 | 5° C | 96% | 1006 hPa | 0 mm | - | 0 W/m² | - |
| 1777858803 | 5° C | 99% | 1006.1 hPa | 0 mm | - | 0 W/m² | - |
| 1777858501 | 5° C | 99% | 1005.9 hPa | 0 mm | - | 0 W/m² | - |
| 1777858196 | 5° C | 99% | 1005.7 hPa | 0 mm | - | 0 W/m² | - |
| 1777857894 | 5° C | 99% | 1005.9 hPa | 0 mm | - | 0 W/m² | - |
| 1777857592 | 5° C | 99% | 1005.7 hPa | 0 mm | - | 0 W/m² | - |
| 1777857288 | 5° C | 99% | 1005.7 hPa | 0 mm | - | 0 W/m² | - |
| 1777856984 | 5° C | 99% | 1005.7 hPa | 0 mm | - | 0 W/m² | - |
| 1777856680 | 5.56° C | 99% | 1005.9 hPa | 0 mm | - | 0 W/m² | - |
| 1777856376 | 5.56° C | 99% | 1005.7 hPa | 0 mm | - | 0 W/m² | - |
| 1777856073 | 5.56° C | 99% | 1005.5 hPa | 0 mm | - | 0 W/m² | - |
| 1777855771 | 5.56° C | 99% | 1005.2 hPa | 0 mm | - | 0 W/m² | - |
| 1777855468 | 5.56° C | 99% | 1005.3 hPa | 0 mm | - | 0 W/m² | - |
| 1777855165 | 6.11° C | 99% | 1005.1 hPa | 0 mm | - | 0 W/m² | - |
| 1777854862 | 6.11° C | 99% | 1005.1 hPa | 0 mm | - | 0 W/m² | - |
* Rain latest hour (hover to see other rain measurements)
** Current wind speed in m/s (hover to see current wind gust speed)